Location: Gorrie
(43.8742°N, 81.1087°W)
Time: 07:17:39
(UTC+00:00)

YAOGAN 1 - Pass Details

Date: 09 December 2025
Orbit: 605 x 607 km, 97.8° (Epoch: 13 January)

Event Time Altitude Azimuth Distance (km) Brightness Sun altitude
Rises 00:17:02 0° 182° (S) 2,851 6.1 -26.2°
Reaches altitude 10° 00:19:17 10° 188° (S) 1,952 5.3 -26.6°
Maximum altitude 00:23:20 44° 261° (W) 843 3.6 -27.3°
Drops below altitude 10° 00:27:26 10° 334° (NNW) 1,967 5.3 -28.1°
Sets 00:29:42 0° 341° (NNW) 2,875 6.1 -28.5°
